This is the latest recevied weather packets stored in our database for station/object SV9TNF-55. If no packets are shown the sender has not sent any weather packets the latest 10 day(s).
| Time | Temp. | Humidity | Pressure | Rain* | Wind** | Luminosity | Snow |
|---|---|---|---|---|---|---|---|
| 1787901295 | 23.89° C | 45% | 1014.5 hPa | 0 mm | 4.92 m/s, 292° | - | - |
| 1787900694 | 23.89° C | 45% | 1014.5 hPa | 0 mm | 4.92 m/s, 292° | - | - |
| 1787900094 | 23.33° C | 47% | 1014.4 hPa | 0 mm | 4.02 m/s, 292° | - | - |
| 1787899494 | 23.33° C | 48% | 1014.4 hPa | 0 mm | 3.58 m/s, 292° | - | - |
| 1787898895 | 23.33° C | 48% | 1014.7 hPa | 0 mm | 4.47 m/s, 270° | - | - |
| 1787898293 | 23.33° C | 48% | 1014.7 hPa | 0 mm | 3.58 m/s, 270° | - | - |
| 1787897694 | 21.67° C | 53% | 1015 hPa | 0 mm | 2.24 m/s, 270° | - | - |
| 1787897094 | 21.67° C | 53% | 1015 hPa | 0 mm | 2.24 m/s, 270° | - | - |
| 1787896493 | 21.67° C | 53% | 1015 hPa | 0 mm | 2.24 m/s, 270° | - | - |
| 1787895893 | 21.67° C | 54% | 1014.5 hPa | 0 mm | 1.79 m/s, 270° | - | - |
| 1787895294 | 21.11° C | 55% | 1014.6 hPa | 0 mm | 1.34 m/s, 270° | - | - |
| 1787894693 | 21.11° C | 55% | 1014.7 hPa | 0 mm | 1.79 m/s, 270° | - | - |
| 1787894093 | 21.11° C | 54% | 1014.4 hPa | 0 mm | 2.24 m/s, 270° | - | - |
| 1787893494 | 21.11° C | 54% | 1014.4 hPa | 0 mm | 3.58 m/s, 270° | - | - |
| 1787892892 | 21.11° C | 53% | 1014.2 hPa | 0 mm | 4.47 m/s, 270° | - | - |
| 1787892293 | 21.11° C | 52% | 1014.2 hPa | 0 mm | 4.02 m/s, 270° | - | - |
| 1787891694 | 21.11° C | 52% | 1014.2 hPa | 0 mm | 4.47 m/s, 270° | - | - |
| 1787891092 | 21.11° C | 52% | 1014.1 hPa | 0 mm | 5.36 m/s, 270° | - | - |
| 1787890493 | 21.11° C | 52% | 1013.7 hPa | 0 mm | 5.36 m/s, 270° | - | - |
| 1787889893 | 21.11° C | 51% | 1013.9 hPa | 0 mm | 5.81 m/s, 292° | - | - |
| 1787889292 | 21.11° C | 51% | 1014.2 hPa | 0 mm | 5.36 m/s, 292° | - | - |
| 1787888693 | 21.11° C | 51% | 1013.9 hPa | 0 mm | 5.81 m/s, 292° | - | - |
| 1787888092 | 21.11° C | 51% | 1013.7 hPa | 0 mm | 5.36 m/s, 292° | - | - |
| 1787887492 | 21.11° C | 51% | 1013.9 hPa | 0 mm | 5.81 m/s, 292° | - | - |
| 1787886892 | 21.11° C | 51% | 1014 hPa | 0 mm | 6.26 m/s, 292° | - | - |
* Rain latest hour (hover to see other rain measurements)
** Current wind speed in m/s (hover to see current wind gust speed)